Location: Parma
(44.8000°N, 10.3333°E)
Time: 07:56:47
(UTC+00:00)

Daily predictions for brighter satellites

Satellite Brightness Start Highest point End
(mag) Time Altitude Azimuth Time Altitude Azimuth Time Altitude Azimuth
Cosmos 1603 4.4 19:39:07 10° SW 19:44:45 63° WNW 19:50:28 10° NNE
Atlas Centaur 2 3.7 19:44:10 10° SW 19:46:01 12° SSW 19:47:45 10° S
SL-8 R/B 4.4 19:41:47 10° W 19:46:31 57° N 19:51:16 10° ENE
Meteor 2-5 Rocket 3.8 19:49:51 10° S 19:55:13 55° E 20:00:38 10° NNE
Cosmos 1607 4.0 19:49:20 10° SSW 19:55:27 58° ESE 20:01:31 10° NE
USA 245 4.2 19:51:24 10° SE 19:55:51 40° ENE 19:59:30 10° N
SPOT 1/Viking Rocket 3.6 19:50:51 10° SSE 19:56:00 88° ENE 20:01:11 10° NNW
Cosmos 1455 3.5 19:54:07 10° NNE 19:57:22 26° ENE 20:00:32 10° SE
Ariane Rocket 3.0 19:54:04 10° SSE 19:59:10 80° ENE 20:04:17 10° NNW
USA 267 4.0 19:55:49 10° ENE 20:01:18 28° SE 20:06:47 10° S
Cosmos 1954 Rocket 4.4 19:57:23 10° NNW 20:02:32 50° ENE 20:07:25 11° SE
PSLV R/B 4.5 20:03:22 10° N 20:07:28 64° WNW 20:11:34 10° SSW
S3M 4.3 20:01:50 10° SSW 20:08:01 70° W 20:14:10 10° N
SPOT 5 3.4 20:07:10 11° SE 20:11:02 38° ENE 20:15:04 10° N
Cosmos 1953 4.4 20:08:17 10° NNW 20:11:33 25° W 20:14:48 10° SW
Meteor 2-10 Rocket 4.1 20:07:34 10° NNW 20:12:30 56° W 20:17:22 10° S
Cosmos 2369 Rocket 4.5 20:08:49 10° NW 20:12:42 19° W 20:16:35 10° SW
H-2A R/B 3.1 20:09:48 10° N 20:14:04 50° WNW 20:18:22 10° SW
Cosmos 1975 Rocket 3.2 20:10:54 10° S 20:15:22 84° W 20:19:50 10° N
Tiangong 1.5 20:12:53 10° WSW 20:15:56 43° S 20:18:24 14° ESE
CARTOSAT-1 3.5 20:12:38 10° SSE 20:16:56 85° ENE 20:21:17 10° NNW
Cosmos 2084 3.1 20:16:44 10° SW 20:20:34 82° SE 20:24:26 10° NE
IRAS Rocket 4.3 20:15:10 10° NNE 20:20:49 86° ESE 20:26:23 10° SSW
Cosmos 1656 4.5 20:16:56 10° NNW 20:22:02 38° NE 20:26:30 13° ESE
USA 102 4.2 20:25:26 22° SE 20:28:31 75° NE 20:36:22 10° NNW
USA 276 1.8 20:25:52 10° WSW 20:28:52 80° SSE 20:31:53 10° ENE
Spot 2 Rocket 3.6 20:25:44 14° SSE 20:30:03 64° ENE 20:35:07 10° N
ATLAS 2AS CENTAUR R/B 2.8 20:25:21 10° NW 20:32:31 80° NE 20:37:59 16° SE
Meteor 1-24 Rocket 3.7 20:27:34 10° SSW 20:32:52 83° W 20:38:19 10° N
Cosmos 1544 Rocket 3.5 20:30:05 10° N 20:34:26 79° E 20:37:54 16° SSE
Cosmos 1371 Rocket 4.5 20:30:13 10° SSW 20:35:24 65° WNW 20:40:41 10° NNE
USA 234 4.4 20:29:55 10° E 20:35:55 40° NNE 20:41:54 10° NW
Cosmos 1452 Rocket 4.0 20:31:41 12° SSE 20:36:04 39° ESE 20:40:57 10° NE
Lacrosse 5 2.0 20:31:51 10° NW 20:36:58 74° NE 20:40:57 17° ESE
X-37B 0.1 20:36:15 10° WSW 20:39:03 73° SSE 20:41:44 11° E
Cosmos 1833 Rocket 3.7 20:36:05 16° SSE 20:39:16 27° ESE 20:43:55 10° NE
Terra 2.1 20:38:03 18° SE 20:41:26 55° ENE 20:46:05 10° N
Cosmos 2184 Rocket 4.2 20:41:17 10° N 20:47:23 58° ENE 20:51:50 19° SSE
Resurs 01 Rocket 3.7 20:44:45 10° SSW 20:48:16 23° W 20:51:49 10° NW
Cosmos 724 4.2 20:45:35 10° SSW 20:51:23 83° SE 20:57:13 10° NE
Helios 1A Rocket 2.9 20:51:30 20° S 20:54:18 78° WSW 20:58:24 10° NNW
CZ-4B R/B 4.1 20:54:27 10° NNW 20:56:11 15° WNW 20:57:54 10° WSW
Lacrosse 5 rocket 1.9 20:56:19 10° WNW 21:00:00 42° SW 21:01:56 24° S
Cosmos 1271 Rocket 3.4 20:57:49 10° NNW 21:01:43 53° W 21:04:25 18° SSW
Cosmos 2082 Rocket 3.7 21:01:01 16° ESE 21:02:13 18° E 21:05:52 10° ENE
NOSS 2-1 (E) 4.2 21:02:20 10° NW 21:07:07 80° SW 21:11:18 23° SSE
ERS-1 Rocket 3.2 21:03:40 19° S 21:07:17 69° WSW 21:12:20 10° NNW
RESURS DK-1 2.9 21:07:10 10° NNW 21:11:12 48° ENE 21:13:07 27° ESE
CZ-2C R/B 3.9 21:12:53 10° N 21:17:29 70° WNW 21:21:17 14° SSW
ARIANE 5 R/B 2.6 21:18:10 28° S 21:20:31 83° WSW 21:25:00 10° NNW
Cosmos 1741 Rocket 4.0 21:17:43 10° NNW 21:23:04 84° ENE 21:25:51 29° SSE
Cosmos 2344 4.5 21:20:09 10° NW 21:28:57 65° NE 21:38:57 17° SE
SL-8 R/B 4.0 21:24:38 10° WNW 21:29:27 68° NNE 21:33:28 15° E
GP-B 3.8 21:28:28 10° NNE 21:32:38 38° E 21:33:53 31° ESE
Cosmos 1455 4.3 21:29:43 10° NW 21:32:42 22° W 21:35:18 12° SW
Cosmos 2074 Rocket 4.4 21:29:42 10° NNW 21:35:52 60° W 21:40:08 20° SSW
Cosmos 2327 Rocket 4.5 21:30:43 10° N 21:37:06 82° E 21:40:33 29° SSE
COSMOS 2406 3.5 21:37:52 30° SSE 21:40:24 50° ESE 21:45:56 10° NE
ASTEX 1 3.5 21:35:50 10° NNE 21:40:48 60° E 21:42:45 35° SSE
USA 267 3.2 21:38:14 10° NE 21:44:48 87° NW 21:51:22 10° SW
Cosmos 2369 4.3 21:39:35 10° NNW 21:45:09 49° ENE 21:48:09 26° ESE
Cosmos 2228 3.6 21:46:18 10° NNW 21:50:23 47° W 21:52:05 30° SSW
Nadezhda 1 Rocket 4.1 21:47:09 21° SSW 21:51:24 70° W 21:57:28 10° N
Tiangong 3.5 21:49:55 10° WSW 21:50:37 14° WSW 21:50:37 14° WSW
Cosmos 1850 Rocket 4.5 21:48:05 10° NNW 21:53:08 51° WSW 21:55:21 30° SSW
Cosmos 1980 Rocket 2.8 21:48:13 10° NNW 21:53:47 50° ENE 21:56:37 27° ESE
BREEZE-M DEB (TANK) 4.4 21:37:12 10° SW 21:54:02 65° SSE 21:58:28 10° ENE
Cosmos 1606 Rocket 3.7 21:51:12 10° NNW 21:55:30 67° W 21:56:56 40° SSW
Cosmos 1892 3.1 21:55:58 43° ESE 21:56:11 44° E 21:59:47 10° NNE
Cosmos 1697 Rocket 2.6 21:50:44 10° NNW 21:56:23 84° WSW 21:58:44 37° SSE
Meteor 1-11 4.2 21:57:30 36° SSE 21:59:48 66° E 22:05:20 10° NNE
Cosmos 2154 Rocket 4.5 21:54:37 10° NNW 22:00:40 55° W 22:04:13 25° SSW
Cosmos 2084 Rocket 4.2 21:57:32 10° NNW 22:01:16 42° NE 22:02:43 30° E
USA 276 3.9 22:02:01 10° WNW 22:04:46 32° N 22:07:32 10° ENE
Cosmos 1328 4.3 22:04:04 34° SW 22:05:31 55° W 22:09:29 10° N
Cosmos 1331 Rocket 4.5 22:04:06 18° SW 22:07:57 59° WNW 22:13:13 10° NNE
In-Cosmos 22 Rocket 4.5 22:06:27 37° SE 22:08:17 52° E 22:13:36 10° NNE
X-37B 2.3 22:11:43 10° W 22:12:57 23° W 22:12:57 23° W
Cosmos 1408 2.3 22:15:25 81° SW 22:15:32 84° W 22:19:00 10° N
USA 234 3.2 22:14:25 25° SE 22:18:29 88° NE 22:25:06 10° NW
Lacrosse 5 3.3 22:15:37 10° WNW 22:19:29 22° WSW 22:20:08 21° SW
Terra 3.9 22:16:55 12° SW 22:19:31 18° W 22:22:43 10° NW
Cosmos 1726 Rocket 4.2 22:16:06 10° NNW 22:20:15 46° W 22:21:23 37° SW
ATLAS 2AS CENTAUR R/B 4.2 22:17:32 10° WNW 22:22:34 22° WSW 22:25:25 17° SW
Cosmos 1833 Rocket 3.5 22:17:42 11° SW 22:22:54 48° WNW 22:28:21 10° NNE
Cosmos 2322 Rocket 4.2 22:21:04 10° N 22:25:19 21° NE 22:29:34 10° E
Cosmos 1867 3.9 22:23:27 10° NNW 22:28:53 62° NE 22:31:17 33° ESE
ATLAS 5 CENTAUR R/B 2.9 22:30:25 22° E 22:30:25 22° E 22:32:33 10° ENE
Cosmos 2278 4.1 22:24:16 10° NNW 22:29:55 57° ENE 22:32:24 32° SE
SL-8 Rocket 4.0 22:25:00 10° N 22:31:16 81° W 22:33:46 39° S
Cosmos 1812 Rocket 4.4 22:29:18 10° N 22:33:29 38° ENE 22:34:25 34° ESE
ALOS 2 2.7 22:32:45 52° SE 22:33:38 66° ENE 22:38:01 10° N
Cosmos 1302 Rocket 4.1 22:31:56 33° SW 22:34:15 70° WNW 22:39:27 10° NNE
Cosmos 2218 Rocket 4.0 22:36:55 10° N 22:43:21 79° W 22:45:53 39° S
Cosmos 2082 Rocket 2.3 22:42:49 31° SW 22:45:38 73° WNW 22:51:22 10° NNE
Cosmos 1602 Rocket 3.7 22:45:32 53° ESE 22:45:56 56° E 22:50:10 10° NNE
Cosmos 2366 rocket 4.1 22:40:47 10° NNW 22:47:06 74° W 22:49:34 39° S
RESURS DK-1 4.4 22:46:11 10° WNW 22:48:47 16° WSW 22:48:58 16° WSW
H-2A R/B 3.4 22:46:20 10° NNE 22:50:32 83° WNW 22:51:09 64° SSW
Spot 4 4.3 22:52:43 42° SW 22:53:43 50° W 22:58:22 10° NNW
Cosmos 2058 Rocket 4.0 22:50:11 10° NNW 22:54:12 36° W 22:55:04 32° WSW
Cosmos 1825 2.5 22:58:50 54° W 22:59:01 55° W 23:02:43 10° N
Cosmos 2360 Rocket 4.0 23:00:16 10° N 23:05:00 26° NE 23:09:44 10° ESE
ERS-2 2.2 23:02:34 10° NNE 23:05:53 68° ENE 23:05:53 68° ENE
Cosmos 968 Rocket 4.2 23:01:33 10° NW 23:06:21 38° WSW 23:07:22 35° SW
Cosmos-2242 3.0 23:03:33 10° N 23:07:49 68° E 23:08:16 62° ESE
Cosmos 1626 Rocket 4.0 23:10:22 44° WSW 23:11:11 50° WNW 23:15:25 10° N
SL-8 R/B 4.1 23:07:17 10° WNW 23:11:22 45° SW 23:11:22 45° SW
Cosmos 2058 3.4 23:16:21 45° ESE 23:16:36 45° E 23:20:37 10° NNE
Cosmos 1869 4.1 23:13:30 10° NNW 23:17:06 37° W 23:17:08 37° W
Cosmos 1606 2.9 23:14:22 10° N 23:18:11 61° E 23:18:18 60° E
BREEZE-M DEB (TANK) 4.5 23:14:36 10° WNW 23:18:25 71° NNE 23:35:23 10° ESE
Cosmos 1934 Rocket 4.5 23:13:53 10° N 23:19:47 51° ENE 23:22:23 31° SE
ADEOS Rocket 3.7 23:20:28 36° SSW 23:23:21 59° W 23:30:52 10° NNW
Cosmos 1825 Rocket 3.6 23:22:58 57° ESE 23:23:22 60° E 23:27:38 10° NNE
Cosmos 1633 3.0 23:25:15 50° WNW 23:25:15 50° WNW 23:28:28 10° N
SL-16 R/B 2.2 23:25:15 10° NNW 23:30:57 77° ENE 23:33:07 39° SE
Cosmos 1980 Rocket 3.4 23:32:49 10° NW 23:37:27 26° WSW 23:38:21 25° WSW
SJ 16-02 1.5 23:33:55 10° NNW 23:38:22 69° ENE 23:39:13 54° SE
Cosmos 1486 Rocket 4.4 23:33:47 10° NNW 23:38:44 45° WSW 23:39:34 41° SW
Gbstr 26 Del rocket 4.5 23:39:34 27° ESE 23:39:34 27° ESE 23:43:13 10° ENE
USA 276 3.7 23:38:09 10° WNW 23:40:56 33° N 23:43:42 10° ENE
Meteor 2-2 Rocket 4.4 23:37:37 10° N 23:43:39 80° E 23:45:54 41° SSE
Cosmos 1821 Rocket 4.3 23:37:43 10° NNW 23:43:50 55° W 23:45:54 38° SW
Cosmos 2219 Rocket 4.2 23:40:46 10° N 23:45:22 25° NE 23:49:58 10° ESE
Cosmos 1340 Rocket 2.7 23:48:44 66° ESE 23:48:52 67° E 23:52:48 10° NNE
CZ-2D R/B 4.0 23:47:52 10° NE 23:51:28 19° E 23:53:35 15° ESE
